This is the latest recevied weather packets stored in our database for station/object KD4IZ-13. If no packets are shown the sender has not sent any weather packets the latest 10 day(s).
| Time | Temp. | Humidity | Pressure | Rain* | Wind** | Luminosity | Snow |
|---|---|---|---|---|---|---|---|
| 1777636633 | 6.67° C | 89% | 1016.3 hPa | 0 mm | - | 149 W/m² | - |
| 1777636330 | 6.67° C | 90% | 1016.5 hPa | 0 mm | - | 93 W/m² | - |
| 1777636024 | 6.11° C | 91% | 1016.6 hPa | 0 mm | - | 136 W/m² | - |
| 1777635721 | 6.11° C | 92% | 1016.7 hPa | 0 mm | - | 127 W/m² | - |
| 1777635417 | 5.56° C | 93% | 1016.7 hPa | 0 mm | - | 116 W/m² | - |
| 1777635115 | 5.56° C | 95% | 1016.5 hPa | 0 mm | - | 98 W/m² | - |
| 1777634810 | 5° C | 96% | 1016.6 hPa | 0 mm | - | 68 W/m² | - |
| 1777634508 | 3.89° C | 98% | 1016.4 hPa | 0 mm | - | 62 W/m² | - |
| 1777634204 | 3.33° C | 98% | 1016.5 hPa | 0 mm | - | 53 W/m² | - |
| 1777633901 | 3.33° C | 98% | 1016.6 hPa | 0 mm | - | 51 W/m² | - |
| 1777633599 | 3.33° C | 98% | 1016.6 hPa | 0 mm | - | 44 W/m² | - |
| 1777633296 | 2.78° C | 99% | 1016.5 hPa | 0 mm | - | 38 W/m² | - |
| 1777632994 | 2.78° C | 99% | 1016.1 hPa | 0 mm | - | 34 W/m² | - |
| 1777632689 | 2.22° C | 99% | 1016.5 hPa | 0 mm | - | 24 W/m² | - |
| 1777632386 | 2.22° C | 99% | 1016.5 hPa | 0 mm | - | 21 W/m² | - |
| 1777632084 | 2.78° C | 99% | 1016.4 hPa | 0 mm | - | 19 W/m² | - |
| 1777631781 | 2.22° C | 99% | 1016.4 hPa | 0 mm | - | 17 W/m² | - |
| 1777631479 | 2.78° C | 99% | 1016.1 hPa | 0 mm | - | 15 W/m² | - |
| 1777631175 | 2.22° C | 99% | 1016.2 hPa | 0 mm | - | 11 W/m² | - |
| 1777630873 | 1.67° C | 99% | 1016.1 hPa | 0 mm | - | 7 W/m² | - |
| 1777630569 | 2.22° C | 98% | 1016.1 hPa | 0 mm | - | 5 W/m² | - |
| 1777630266 | 1.67° C | 99% | 1016.1 hPa | 0 mm | - | 3 W/m² | - |
| 1777629964 | 1.67° C | 98% | 1015.8 hPa | 0 mm | - | 0 W/m² | - |
| 1777629661 | 2.22° C | 98% | 1016.1 hPa | 0 mm | - | 0 W/m² | - |
| 1777629357 | 1.67° C | 98% | 1016.1 hPa | 0 mm | - | 0 W/m² | - |
* Rain latest hour (hover to see other rain measurements)
** Current wind speed in m/s (hover to see current wind gust speed)